STARLINK-34273, 64905

Orbit data source: Space-Track

STARLINK-34273, 64905 is a payload satellite owned by SpaceX/Seattle (US) in LEO that was launched on Sat, 26 Jul 2025 UTC via an FALCON 9 launch vehicle from the Air Force Eastern Test Range (AFETR). Payload-class satellites include a variety of spacecraft equipped with specific instruments for various scientific and technological missions. These include communications satellites like Starlink; space stations such as the ISS; scientific satellites like the Hubble; Earth observation satellites from companies like Planet Labs, Umbra, and HawkEye 360; GPS; miniature CubeSats for education and research; and military/defense satellites.

Loading next visibility...
Identifier
64905, 2025-157B
Orbit
LEO
Country
Flag of USUS
Related business
Manufacturer
SpaceX/Seattle
Mission
Operational Commercial Communications
Bus & Motor
STARLINK V2MO, Unknown motor
Mass
575 kg wet, ~530 kg dry
Launch date (UTC)
2025-07-26 (10 months ago)
Launch vehicle
FALCON 9
Launch site
Air Force Eastern Test Range (AFETR)
Object type
Payload
Rocket body
Debris
Shape & HBR
Box + 2 Pan, 17.7 m
Radar Cross Section
36.964 m², Large (>1 m²)

Expand to show TLE details & history
Last TLE update: 8 hours ago

TLE from 8 hours ago
0 STARLINK-34273
1 64905U 25157B   26145.58335648  .00076964  00000-0  23353-2 0  9994
2 64905  53.1590 348.6412 0000826  72.4072 322.4469 15.33443291  5870
Epoch: 2026-05-25T14:00Z
TLE epoch observation values (Epoch: 2026-05-25T14:00:01.999Z)
Latitude
27.29342°
Longitude
-81.92675°
Altitude
466.388 km
Speed
7.637 km/s
True Right ascension
00h 45m 00s
True Declination
27° 08' 51"
Sunlit
Object was in daylight at epoch
Visualization orbit readout
Latitude
Unknown
Longitude
Unknown
Altitude
Unknown
Speed
Unknown
Apparent Right ascension
Unknown
Apparent Declination
Unknown
Sunlit
N/A
Visualization observer readout
Local Sidereal Time
06:59:04
Azimuth
Unknown
Elevation
Unknown
Doppler factor
Unknown
Orbital elements
Apogee altitude
466.371 km
Perigee altitude
465.24 km
Semi-major axis
6,843.942 km
Eccentricity
0.00008
Inclination
53.159°
RAAN
348.6412°
Arg. of periapsis
72.4072°
True anomaly
322.44113°
Mean anomaly
322.4469°
Eccentric anomaly
322.44402°
Mean motion
3.8334 °/min
Orbital period
93.91 mins
BSTAR
0.0023353
Loading maneuver chart data...
Computing Atmospheric mass density...
Loading historical data...
Loading historical data...
Loading historical data...
Loading historical data...
Loading historical data...
Loading historical data...
Loading historical data...

Documentation

Showing up to 5 results
|